Flag for U.S.A. Weather past 2 weeks in Pasadena, Texas, U.S.A.

Now
82 °F

Partly sunny.


Feels Like: 91 °F
Forecast: 79 / 91 °F
Wind: 8 mph from South

Location: Houston / Ellington

Current Time: Jul 5, 2015 at 9:22:41 AM

Latest Report: Jul 5, 2015 at 8:50 AM


Visibility: 8 mi

Pressure: 30.09 "Hg

Humidity: 84%

Dew point: 77 °F

Location of PasadenaLocation

Historic Weather in Pasadena — Graph

°F

Pasadena temperature yesterday

Maximum temperature yesterday: 91 °F (at 1:50 PM)
Minimum temperature yesterday: 79 °F (at 1:50 AM)
Average temperature yesterday: 83 °F

Past Weeks' High & Low Weather Summary

 TemperatureHumidityPressure
High93 °F (Jun 27, 3:50 PM)100% (Jun 21, 9:50 AM)30.18 "Hg (Jun 21, 9:50 AM)
Low72 °F (Jun 30, 4:50 PM)33% (Jun 22, 4:50 PM)29.95 "Hg (Jun 26, 6:50 PM)
Average83 °F77%30.05 "Hg
* Reported Jun 20 7:50 AM — Jul 5 7:50 AM, Pasadena, Weather by CustomWeather, © 2015

Note: Actual official high and low records may vary slightly from our data, if they occured in-between our weather recording intervals... More about our weather records

Advertising

Pasadena weather history for previous 24 hours

 ConditionsComfort  
Time TempWeatherWind HumidityBarometerVisibility
7:50 AM
Sun, Jul 5
81 °FPartly sunny.5 mph89%30.08 "Hg8 mi
6:50 AM79 °FPassing clouds.No wind94%30.07 "Hg8 mi
5:50 AM79 °FPassing clouds.No wind94%30.06 "Hg8 mi
4:50 AM79 °FPassing clouds.No wind94%30.05 "Hg8 mi
3:50 AM79 °FPassing clouds.3 mph94%30.04 "Hg8 mi
1:50 AM79 °FPassing clouds.3 mph94%30.04 "Hg8 mi
11:50 PM
Sat, Jul 4
81 °FPassing clouds.3 mph89%30.04 "Hg10 mi
10:50 PM82 °FPassing clouds.5 mph70%30.03 "Hg10 mi
9:50 PM82 °FPassing clouds.No wind70%30.00 "Hg10 mi
8:50 PM82 °FScattered clouds.No wind70%29.97 "Hg10 mi
7:50 PM84 °FBroken clouds.6 mph70%29.98 "Hg10 mi
6:50 PM86 °FBroken clouds.14 mph70%29.99 "Hg10 mi
5:50 PM86 °FBroken clouds.10 mph70%30.00 "Hg10 mi
4:50 PM84 °FBroken clouds.9 mph74%30.00 "Hg10 mi
3:50 PM82 °FBroken clouds.12 mph79%30.02 "Hg10 mi
2:50 PM91 °FPartly sunny.13 mph59%30.00 "Hg10 mi
1:50 PM91 °FBroken clouds.12 mph56%30.01 "Hg10 mi
12:50 PM90 °FBroken clouds.13 mph59%30.03 "Hg10 mi
11:50 AM90 °FBroken clouds.7 mph59%30.04 "Hg10 mi
10:50 AM88 °FBroken clouds.10 mph62%30.04 "Hg10 mi
9:50 AM81 °FPartly sunny.9 mph84%30.05 "Hg10 mi
Weather by CustomWeather, © 2015

See weather overviewHow to use our weather pages